Location: Newark
(16.3678°N, 77.8722°E)
Time: 05:40:49
(UTC+00:00)

S-56A Canister/Altair - Pass Details

Date: 13 December 2019
Orbit: 634 x 2498 km, 38.9° (Epoch: 17 January)

Event Time Altitude Azimuth Distance (km) Brightness Sun altitude
Rises 04:18:07 0° 265° (W) 5,245 11.5 37.1°
Reaches altitude 10° 04:21:37 10° 273° (W) 4,478 11.2 37.6°
Maximum altitude 04:33:30 40° 339° (NNW) 3,205 10.6 39.5°
Drops below altitude 10° 04:47:18 10° 44° (NE) 5,134 11.7 41.5°
Sets 04:51:43 0° 51° (NE) 6,061 12.1 42.1°
